| time (UTC) | temp F | wind direction | speed MPH | gust MPH | rain 1hr in | rain 24hr in | rain mn in | humidity % | barometer mb |
| 20260905031907 | 64 | 190 | 0.0 | 0.0 | 0.00 | 0.00 | 0.00 | 65 | 1008.5 |
| 20260905031404 | 64 | 190 | 0.0 | 0.0 | 0.00 | 0.00 | 0.00 | 65 | 1008.5 |
| 20260905030902 | 65 | 190 | 0.0 | 0.0 | 0.00 | 0.00 | 0.00 | 65 | 1008.5 |
| 20260905030401 | 65 | 190 | 0.0 | 0.0 | 0.00 | 0.00 | 0.00 | 65 | 1008.6 |
| 20260905030118 | 65 | 190 | 0.0 | 0.0 | 0.00 | 0.00 | 0.00 | 64 | 1008.6 |
| 20260905025849 | 65 | 190 | 0.0 | 0.0 | 0.00 | 0.00 | 0.00 | 65 | 1008.5 |
| 20260905024853 | 65 | 190 | 0.0 | 0.0 | 0.00 | 0.00 | 0.00 | 65 | 1008.5 |
| 20260905024352 | 65 | 194 | 0.0 | 0.0 | 0.00 | 0.00 | 0.00 | 66 | 1008.4 |
| 20260905023852 | 65 | 194 | 0.0 | 0.0 | 0.00 | 0.00 | 0.00 | 65 | 1008.5 |
| 20260905023344 | 65 | 194 | 0.0 | 0.0 | 0.00 | 0.00 | 0.00 | 64 | 1008.5 |
| 20260905022837 | 65 | 194 | 0.0 | 0.0 | 0.00 | 0.00 | 0.00 | 64 | 1008.5 |
| 20260905022332 | 66 | 194 | 0.0 | 0.0 | 0.00 | 0.00 | 0.00 | 64 | 1008.6 |
| 20260905021826 | 66 | 194 | 0.0 | 0.0 | 0.00 | 0.00 | 0.00 | 64 | 1008.6 |
| 20260905021320 | 66 | 194 | 0.0 | 0.0 | 0.00 | 0.00 | 0.00 | 64 | 1008.7 |
| 20260905020814 | 66 | 194 | 0.0 | 0.0 | 0.00 | 0.00 | 0.00 | 64 | 1008.6 |
| 20260905020308 | 66 | 194 | 0.0 | 0.0 | 0.00 | 0.00 | 0.00 | 65 | 1008.6 |
| 20260905015802 | 66 | 194 | 0.0 | 0.0 | 0.00 | 0.00 | 0.00 | 63 | 1008.6 |
| 20260905015256 | 66 | 194 | 0.0 | 0.0 | 0.00 | 0.00 | 0.00 | 63 | 1008.6 |
| 20260905015008 | 66 | 194 | 0.0 | 0.0 | 0.00 | 0.00 | 0.00 | 64 | 1008.6 |
| 20260905014244 | 66 | 194 | 0.0 | 0.0 | 0.00 | 0.00 | 0.00 | 64 | 1008.7 |
| 20260905013738 | 67 | 194 | 0.0 | 0.0 | 0.00 | 0.00 | 0.00 | 65 | 1008.9 |
| 20260905013232 | 67 | 194 | 0.0 | 0.0 | 0.00 | 0.00 | 0.00 | 64 | 1008.9 |
| 20260905012726 | 67 | 194 | 0.0 | 0.0 | 0.00 | 0.00 | 0.00 | 64 | 1009.0 |
| 20260905012220 | 67 | 194 | 0.0 | 0.0 | 0.00 | 0.00 | 0.00 | 65 | 1009.0 |
| 20260905011714 | 67 | 194 | 0.0 | 0.0 | 0.00 | 0.00 | 0.00 | 64 | 1009.0 |
| 20260905011208 | 67 | 194 | 0.0 | 0.0 | 0.00 | 0.00 | 0.00 | 64 | 1008.9 |
| 20260905010702 | 67 | 194 | 0.0 | 0.0 | 0.00 | 0.00 | 0.00 | 64 | 1008.9 |
| 20260905010156 | 67 | 194 | 0.0 | 0.0 | 0.00 | 0.00 | 0.00 | 65 | 1008.9 |
| 20260905005650 | 67 | 194 | 0.0 | 0.0 | 0.00 | 0.00 | 0.00 | 65 | 1008.7 |
| 20260905005143 | 67 | 194 | 0.0 | 0.0 | 0.00 | 0.00 | 0.00 | 66 | 1008.7 |
| 20260905004638 | 67 | 194 | 0.0 | 0.0 | 0.00 | 0.00 | 0.00 | 64 | 1008.7 |
| 20260905004358 | 67 | 194 | 0.0 | 0.0 | 0.00 | 0.00 | 0.00 | 63 | 1008.9 |
| 20260905003626 | 67 | 194 | 0.0 | 0.0 | 0.00 | 0.00 | 0.00 | 64 | 1009.0 |
| 20260905003120 | 67 | 194 | 0.0 | 0.0 | 0.00 | 0.00 | 0.00 | 63 | 1008.9 |
| 20260905002614 | 67 | 194 | 0.0 | 0.0 | 0.00 | 0.00 | 0.00 | 63 | 1009.0 |
| 20260905002108 | 68 | 194 | 0.0 | 0.0 | 0.00 | 0.00 | 0.00 | 63 | 1009.1 |
| 20260905001602 | 68 | 194 | 0.0 | 0.0 | 0.00 | 0.00 | 0.00 | 63 | 1009.0 |
| 20260905001056 | 68 | 194 | 0.0 | 0.0 | 0.00 | 0.00 | 0.00 | 64 | 1008.9 |
| 20260905000550 | 68 | 194 | 0.0 | 0.0 | 0.00 | 0.00 | 0.00 | 62 | 1008.7 |
| 20260905000044 | 69 | 194 | 0.0 | 0.0 | 0.00 | 0.00 | 0.00 | 62 | 1008.6 |
| 20260904235759 | 69 | 194 | 0.0 | 0.0 | 0.00 | 0.00 | 0.00 | 61 | 1008.6 |
| 20260904235032 | 69 | 194 | 0.0 | 0.0 | 0.00 | 0.00 | 0.00 | 59 | 1008.6 |
| 20260904234526 | 69 | 194 | 0.0 | 0.0 | 0.00 | 0.00 | 0.00 | 62 | 1008.4 |
| 20260904234020 | 69 | 194 | 0.0 | 0.0 | 0.00 | 0.00 | 0.00 | 61 | 1008.4 |
| 20260904233514 | 70 | 194 | 0.0 | 0.0 | 0.00 | 0.00 | 0.00 | 60 | 1008.4 |
| 20260904233008 | 70 | 194 | 0.0 | 0.0 | 0.00 | 0.00 | 0.00 | 60 | 1008.4 |
| 20260904232724 | 70 | 194 | 0.0 | 0.0 | 0.00 | 0.00 | 0.00 | 60 | 1008.4 |
| 20260904231956 | 70 | 194 | 0.0 | 0.0 | 0.00 | 0.00 | 0.00 | 60 | 1008.3 |
| 20260904231450 | 70 | 194 | 0.0 | 0.0 | 0.00 | 0.00 | 0.00 | 59 | 1008.4 |
| 20260904230944 | 71 | 194 | 0.0 | 0.0 | 0.00 | 0.00 | 0.00 | 59 | 1008.4 |
| 20260904230440 | 71 | 194 | 0.0 | 0.0 | 0.00 | 0.00 | 0.00 | 59 | 1008.4 |
| 20260904225932 | 71 | 194 | 0.0 | 0.0 | 0.00 | 0.00 | 0.00 | 59 | 1008.3 |
| 20260904225426 | 71 | 194 | 0.0 | 0.0 | 0.00 | 0.00 | 0.00 | 59 | 1008.4 |
| 20260904225142 | 71 | 194 | 0.0 | 0.0 | 0.00 | 0.00 | 0.00 | 58 | 1008.4 |
| 20260904224414 | 72 | 194 | 0.0 | 0.0 | 0.00 | 0.00 | 0.00 | 59 | 1008.3 |
| 20260904223907 | 72 | 194 | 0.0 | 0.0 | 0.00 | 0.00 | 0.00 | 59 | 1008.3 |
| 20260904223402 | 72 | 194 | 0.0 | 0.0 | 0.00 | 0.00 | 0.00 | 58 | 1008.3 |
| 20260904223124 | 72 | 194 | 0.0 | 0.0 | 0.00 | 0.00 | 0.00 | 58 | 1008.1 |
| 20260904222350 | 72 | 194 | 0.0 | 0.0 | 0.00 | 0.00 | 0.00 | 57 | 1008.2 |
| 20260904221844 | 73 | 194 | 0.0 | 0.0 | 0.00 | 0.00 | 0.00 | 55 | 1008.3 |
| 20260904221338 | 73 | 194 | 0.0 | 0.0 | 0.00 | 0.00 | 0.00 | 55 | 1008.3 |
| 20260904220832 | 73 | 194 | 0.0 | 0.0 | 0.00 | 0.00 | 0.00 | 55 | 1008.3 |
| 20260904220326 | 73 | 194 | 0.0 | 0.0 | 0.00 | 0.00 | 0.00 | 53 | 1008.4 |
| 20260904215820 | 73 | 194 | 0.0 | 0.0 | 0.00 | 0.00 | 0.00 | 57 | 1008.3 |
| 20260904215315 | 74 | 194 | 0.0 | 0.0 | 0.00 | 0.00 | 0.00 | 54 | 1008.3 |
| 20260904214808 | 74 | 194 | 0.0 | 0.0 | 0.00 | 0.00 | 0.00 | 54 | 1008.2 |
| 20260904214526 | 74 | 194 | 0.0 | 0.0 | 0.00 | 0.00 | 0.00 | 54 | 1008.2 |
| 20260904213756 | 74 | 194 | 0.0 | 0.0 | 0.00 | 0.00 | 0.00 | 54 | 1008.1 |
| 20260904213250 | 75 | 204 | 0.0 | 0.0 | 0.00 | 0.00 | 0.00 | 53 | 1008.1 |
| 20260904212744 | 75 | 205 | 0.0 | 0.0 | 0.00 | 0.00 | 0.00 | 54 | 1008.0 |
| 20260904212238 | 76 | 207 | 0.0 | 0.0 | 0.00 | 0.00 | 0.00 | 54 | 1008.2 |
| 20260904211732 | 76 | 207 | 0.0 | 0.0 | 0.00 | 0.00 | 0.00 | 53 | 1008.1 |
| 20260904211226 | 77 | 207 | 0.0 | 0.0 | 0.00 | 0.00 | 0.00 | 51 | 1008.2 |
| 20260904210720 | 78 | 207 | 0.0 | 0.0 | 0.00 | 0.00 | 0.00 | 49 | 1008.1 |
| 20260904210441 | 78 | 206 | 0.0 | 0.0 | 0.00 | 0.00 | 0.00 | 50 | 1008.1 |
| 20260904205709 | 79 | 206 | 0.0 | 0.0 | 0.00 | 0.00 | 0.00 | 51 | 1008.1 |
| 20260904205203 | 79 | 209 | 0.0 | 0.0 | 0.00 | 0.00 | 0.00 | 51 | 1008.0 |
| 20260904204656 | 79 | 206 | 0.0 | 0.0 | 0.00 | 0.00 | 0.00 | 56 | 1007.9 |
| 20260904204150 | 79 | 206 | 0.0 | 0.0 | 0.00 | 0.00 | 0.00 | 55 | 1007.9 |
| 20260904203644 | 79 | 206 | 0.0 | 0.0 | 0.00 | 0.00 | 0.00 | 55 | 1007.8 |
| 20260904203138 | 78 | 206 | 0.0 | 0.0 | 0.00 | 0.00 | 0.00 | 53 | 1008.0 |
| 20260904202633 | 78 | 202 | 0.0 | 0.0 | 0.00 | 0.00 | 0.00 | 54 | 1008.0 |
| 20260904202126 | 77 | 202 | 0.0 | 0.0 | 0.00 | 0.00 | 0.00 | 56 | 1007.9 |
| 20260904201852 | 77 | 202 | 0.0 | 0.0 | 0.00 | 0.00 | 0.00 | 60 | 1007.9 |
| 20260904201113 | 76 | 202 | 0.0 | 0.0 | 0.00 | 0.00 | 0.00 | 58 | 1008.0 |
| 20260904200612 | 75 | 202 | 0.0 | 0.0 | 0.00 | 0.00 | 0.00 | 59 | 1008.0 |
| 20260904200114 | 75 | 202 | 0.0 | 0.0 | 0.00 | 0.00 | 0.00 | 63 | 1008.0 |
| 20260904195612 | 74 | 202 | 0.0 | 0.0 | 0.00 | 0.00 | 0.00 | 65 | 1008.0 |
| 20260904195110 | 74 | 202 | 0.0 | 0.0 | 0.00 | 0.00 | 0.00 | 65 | 1007.9 |
| 20260904194612 | 74 | 202 | 0.0 | 0.0 | 0.00 | 0.00 | 0.00 | 67 | 1008.0 |
| 20260904194110 | 74 | 202 | 0.0 | 0.0 | 0.00 | 0.00 | 0.00 | 68 | 1008.0 |
| 20260904193612 | 74 | 202 | 0.0 | 0.0 | 0.00 | 0.00 | 0.00 | 68 | 1007.9 |
| 20260904193110 | 74 | 202 | 0.0 | 0.0 | 0.00 | 0.00 | 0.00 | 67 | 1007.9 |
| 20260904192613 | 74 | 202 | 0.0 | 0.0 | 0.00 | 0.00 | 0.00 | 66 | 1008.0 |
| 20260904192339 | 74 | 202 | 0.0 | 0.0 | 0.00 | 0.00 | 0.00 | 64 | 1007.9 |
| 20260904191607 | 75 | 202 | 0.0 | 0.0 | 0.00 | 0.00 | 0.00 | 62 | 1008.0 |
| 20260904191107 | 76 | 202 | 0.0 | 0.0 | 0.00 | 0.00 | 0.00 | 60 | 1008.2 |
| 20260904190607 | 77 | 202 | 0.0 | 0.0 | 0.00 | 0.00 | 0.00 | 58 | 1008.3 |
| 20260904190106 | 78 | 199 | 0.0 | 0.0 | 0.00 | 0.00 | 0.00 | 58 | 1008.3 |
| 20260904185606 | 78 | 199 | 0.0 | 0.0 | 0.00 | 0.00 | 0.00 | 58 | 1008.2 |
| 20260904185107 | 78 | 199 | 0.0 | 0.0 | 0.00 | 0.00 | 0.00 | 58 | 1008.3 |
| 20260904184606 | 79 | 198 | 0.0 | 0.0 | 0.00 | 0.00 | 0.00 | 56 | 1008.2 |
| 20260904184108 | 79 | 199 | 0.0 | 0.0 | 0.00 | 0.00 | 0.00 | 57 | 1008.0 |
| 20260904183829 | 80 | 201 | 0.0 | 0.0 | 0.00 | 0.00 | 0.00 | 54 | 1008.0 |
| 20260904183103 | 80 | 201 | 0.0 | 0.0 | 0.00 | 0.00 | 0.00 | 54 | 1008.0 |
| 20260904182828 | 80 | 201 | 0.0 | 0.0 | 0.00 | 0.00 | 0.00 | 54 | 1008.0 |
| 20260904182103 | 80 | 201 | 0.0 | 0.0 | 0.00 | 0.00 | 0.00 | 54 | 1008.1 |
| 20260904181604 | 79 | 201 | 0.0 | 0.0 | 0.00 | 0.00 | 0.00 | 55 | 1008.1 |
| 20260904181103 | 79 | 201 | 0.0 | 0.0 | 0.00 | 0.00 | 0.00 | 56 | 1008.0 |
| 20260904180604 | 80 | 201 | 0.0 | 0.0 | 0.00 | 0.00 | 0.00 | 55 | 1008.2 |
| 20260904180104 | 80 | 201 | 0.0 | 0.0 | 0.00 | 0.00 | 0.00 | 56 | 1008.2 |
| 20260904175604 | 79 | 202 | 0.0 | 0.0 | 0.00 | 0.00 | 0.00 | 58 | 1008.3 |
| 20260904175102 | 79 | 202 | 0.0 | 0.0 | 0.00 | 0.00 | 0.00 | 58 | 1008.3 |
| 20260904174558 | 78 | 200 | 0.0 | 0.0 | 0.00 | 0.00 | 0.00 | 60 | 1008.3 |
| 20260904174059 | 77 | 200 | 0.0 | 0.0 | 0.00 | 0.00 | 0.00 | 60 | 1008.2 |
| 20260904173559 | 77 | 200 | 0.0 | 0.0 | 0.00 | 0.00 | 0.00 | 63 | 1008.3 |
| 20260904173057 | 76 | 200 | 0.0 | 0.0 | 0.00 | 0.00 | 0.00 | 64 | 1008.3 |
| 20260904172556 | 77 | 200 | 0.0 | 0.0 | 0.00 | 0.00 | 0.00 | 62 | 1008.5 |
| 20260904172053 | 77 | 200 | 0.0 | 0.0 | 0.00 | 0.00 | 0.00 | 61 | 1008.5 |
| 20260904172032 | 77 | 200 | 0.0 | 0.0 | 0.00 | 0.00 | 0.00 | 61 | 1008.5 |
| 20260904171306 | 77 | 200 | 0.0 | 0.0 | 0.00 | 0.00 | 0.00 | 61 | 1008.5 |
| 20260904170549 | 78 | 200 | 0.0 | 0.0 | 0.00 | 0.00 | 0.00 | 60 | 1008.5 |
| 20260904170044 | 78 | 200 | 0.0 | 0.0 | 0.00 | 0.00 | 0.00 | 60 | 1008.5 |
| 20260904165810 | 77 | 200 | 0.0 | 0.0 | 0.00 | 0.00 | 0.00 | 61 | 1008.7 |
| 20260904165046 | 77 | 200 | 0.0 | 0.0 | 0.00 | 0.00 | 0.00 | 62 | 1008.6 |
| 20260904164542 | 76 | 199 | 0.0 | 2.0 | 0.00 | 0.00 | 0.00 | 60 | 1008.6 |
| 20260904164040 | 76 | 199 | 0.0 | 2.0 | 0.00 | 0.00 | 0.00 | 64 | 1008.7 |
| 20260904163803 | 75 | 198 | 0.0 | 0.0 | 0.00 | 0.00 | 0.00 | 66 | 1008.6 |
| 20260904163038 | 74 | 198 | 0.0 | 0.0 | 0.00 | 0.00 | 0.00 | 66 | 1008.9 |
| 20260904162534 | 74 | 198 | 0.0 | 1.0 | 0.00 | 0.00 | 0.00 | 66 | 1008.9 |
| 20260904162032 | 74 | 198 | 0.0 | 2.0 | 0.00 | 0.00 | 0.00 | 66 | 1009.0 |
| 20260904161754 | 74 | 198 | 0.0 | 2.0 | 0.00 | 0.00 | 0.00 | 66 | 1009.0 |
| 20260904161519 | 74 | 198 | 0.0 | 1.0 | 0.00 | 0.00 | 0.00 | 67 | 1009.1 |
| 20260904160527 | 74 | 200 | 0.0 | 2.0 | 0.00 | 0.00 | 0.00 | 68 | 1009.1 |
| 20260904160021 | 73 | 200 | 0.0 | 2.0 | 0.00 | 0.01 | 0.00 | 69 | 1009.3 |
| 20260904155735 | 73 | 200 | 1.0 | 3.0 | 0.00 | 0.01 | 0.00 | 69 | 1009.2 |
| 20260904155009 | 72 | 200 | 1.0 | 3.0 | 0.00 | 0.01 | 0.00 | 69 | 1009.1 |
| 20260904154504 | 72 | 202 | 0.0 | 2.0 | 0.00 | 0.01 | 0.00 | 70 | 1009.1 |
| 20260904153957 | 71 | 202 | 0.0 | 2.0 | 0.00 | 0.01 | 0.00 | 72 | 1009.3 |
| 20260904153451 | 71 | 202 | 0.0 | 2.0 | 0.00 | 0.01 | 0.00 | 72 | 1009.2 |
| 20260904152945 | 70 | 202 | 0.0 | 0.0 | 0.00 | 0.01 | 0.00 | 73 | 1009.3 |
| 20260904152700 | 70 | 202 | 0.0 | 0.0 | 0.00 | 0.01 | 0.00 | 74 | 1009.3 |
| 20260904151933 | 69 | 202 | 0.0 | 0.0 | 0.00 | 0.01 | 0.00 | 75 | 1009.3 |
| 20260904151647 | 69 | 202 | 0.0 | 0.0 | 0.00 | 0.01 | 0.00 | 76 | 1009.4 |
| 20260904151147 | 69 | 202 | 0.0 | 0.0 | 0.00 | 0.01 | 0.00 | 77 | 1009.5 |
| 20260904150415 | 69 | 202 | 0.0 | 0.0 | 0.00 | 0.01 | 0.00 | 77 | 1009.5 |
| 20260904145909 | 68 | 202 | 0.0 | 0.0 | 0.00 | 0.01 | 0.00 | 77 | 1009.5 |
| 20260904145403 | 68 | 202 | 0.0 | 0.0 | 0.00 | 0.01 | 0.00 | 78 | 1009.6 |
| 20260904145120 | 68 | 202 | 0.0 | 0.0 | 0.00 | 0.01 | 0.00 | 79 | 1009.6 |
| 20260904144617 | 67 | 202 | 0.0 | 0.0 | 0.00 | 0.01 | 0.00 | 78 | 1009.6 |
| 20260904143845 | 67 | 202 | 0.0 | 0.0 | 0.00 | 0.01 | 0.00 | 78 | 1009.6 |
| 20260904143338 | 67 | 202 | 0.0 | 0.0 | 0.00 | 0.01 | 0.00 | 79 | 1009.7 |
| 20260904143050 | 67 | 202 | 0.0 | 0.0 | 0.00 | 0.01 | 0.00 | 80 | 1009.7 |
| 20260904142327 | 67 | 202 | 0.0 | 0.0 | 0.00 | 0.01 | 0.00 | 79 | 1009.7 |
| 20260904141821 | 67 | 202 | 0.0 | 1.0 | 0.00 | 0.01 | 0.00 | 80 | 1009.7 |
| 20260904141315 | 66 | 202 | 0.0 | 1.0 | 0.00 | 0.01 | 0.00 | 80 | 1009.7 |
| 20260904140809 | 66 | 202 | 0.0 | 1.0 | 0.00 | 0.01 | 0.00 | 80 | 1009.8 |
| 20260904140303 | 66 | 202 | 0.0 | 1.0 | 0.00 | 0.01 | 0.00 | 80 | 1009.8 |
| 20260904135757 | 66 | 202 | 0.0 | 1.0 | 0.00 | 0.01 | 0.00 | 81 | 1009.8 |
| 20260904135251 | 65 | 202 | 0.0 | 0.0 | 0.00 | 0.01 | 0.00 | 81 | 1009.8 |
| 20260904134745 | 65 | 202 | 0.0 | 0.0 | 0.00 | 0.01 | 0.00 | 81 | 1009.8 |
| 20260904134505 | 65 | 202 | 0.0 | 0.0 | 0.00 | 0.01 | 0.00 | 81 | 1009.7 |
| 20260904133734 | 65 | 202 | 0.0 | 0.0 | 0.00 | 0.01 | 0.00 | 81 | 1009.7 |
| 20260904133228 | 64 | 202 | 0.0 | 2.0 | 0.00 | 0.01 | 0.00 | 81 | 1009.7 |
| 20260904132721 | 64 | 202 | 0.0 | 2.0 | 0.00 | 0.01 | 0.00 | 81 | 1009.8 |
| 20260904132215 | 64 | 202 | 0.0 | 3.0 | 0.00 | 0.01 | 0.00 | 81 | 1009.8 |
| 20260904131709 | 64 | 202 | 0.0 | 3.0 | 0.00 | 0.01 | 0.00 | 81 | 1009.8 |
| 20260904131204 | 64 | 202 | 0.0 | 2.0 | 0.00 | 0.01 | 0.00 | 81 | 1009.8 |
| 20260904130657 | 64 | 202 | 0.0 | 2.0 | 0.00 | 0.01 | 0.00 | 81 | 1009.7 |
| 20260904130151 | 64 | 202 | 0.0 | 2.0 | 0.00 | 0.01 | 0.00 | 81 | 1009.7 |
| 20260904125903 | 63 | 202 | 0.0 | 2.0 | 0.00 | 0.01 | 0.00 | 81 | 1009.7 |
| 20260904125139 | 63 | 202 | 0.0 | 1.0 | 0.00 | 0.01 | 0.00 | 81 | 1009.7 |
| 20260904124633 | 63 | 202 | 0.0 | 1.0 | 0.00 | 0.01 | 0.00 | 81 | 1009.7 |
| 20260904124127 | 63 | 202 | 0.0 | 2.0 | 0.00 | 0.01 | 0.00 | 81 | 1009.7 |
| 20260904123621 | 63 | 202 | 0.0 | 2.0 | 0.00 | 0.01 | 0.00 | 80 | 1009.7 |
| 20260904123115 | 63 | 202 | 0.0 | 2.0 | 0.00 | 0.01 | 0.00 | 81 | 1009.7 |
| 20260904122609 | 63 | 202 | 0.0 | 2.0 | 0.00 | 0.01 | 0.00 | 81 | 1009.8 |
| 20260904122103 | 63 | 202 | 0.0 | 1.0 | 0.00 | 0.01 | 0.00 | 81 | 1009.8 |
| 20260904121557 | 63 | 202 | 0.0 | 1.0 | 0.00 | 0.01 | 0.00 | 81 | 1009.8 |
| 20260904121309 | 63 | 202 | 0.0 | 1.0 | 0.00 | 0.02 | 0.00 | 81 | 1009.7 |
| 20260904120545 | 63 | 202 | 0.0 | 0.0 | 0.00 | 0.02 | 0.00 | 81 | 1009.8 |
| 20260904120039 | 63 | 202 | 0.0 | 2.0 | 0.00 | 0.02 | 0.00 | 81 | 1009.8 |
| 20260904115533 | 63 | 202 | 0.0 | 2.0 | 0.00 | 0.02 | 0.00 | 81 | 1009.8 |
| 20260904115027 | 63 | 202 | 0.0 | 2.0 | 0.00 | 0.02 | 0.00 | 81 | 1009.8 |
| 20260904114522 | 63 | 202 | 0.0 | 1.0 | 0.00 | 0.02 | 0.00 | 81 | 1009.8 |
| 20260904114239 | 63 | 202 | 0.0 | 1.0 | 0.00 | 0.02 | 0.00 | 81 | 1009.8 |
| 20260904113509 | 63 | 202 | 0.0 | 2.0 | 0.00 | 0.03 | 0.00 | 81 | 1009.7 |
| 20260904113004 | 63 | 202 | 0.0 | 2.0 | 0.00 | 0.03 | 0.00 | 81 | 1009.7 |
| 20260904112457 | 63 | 202 | 0.0 | 1.0 | 0.00 | 0.03 | 0.00 | 81 | 1009.7 |
| 20260904112211 | 63 | 202 | 0.0 | 0.0 | 0.00 | 0.03 | 0.00 | 80 | 1009.6 |
| 20260904111445 | 63 | 202 | 0.0 | 0.0 | 0.00 | 0.03 | 0.00 | 80 | 1009.6 |
| 20260904110939 | 63 | 202 | 0.0 | 0.0 | 0.00 | 0.03 | 0.00 | 81 | 1009.5 |
| 20260904110433 | 63 | 202 | 0.0 | 0.0 | 0.00 | 0.03 | 0.00 | 80 | 1009.5 |
| 20260904110421 | 63 | 202 | 0.0 | 0.0 | 0.00 | 0.03 | 0.00 | 80 | 1009.6 |
| 20260904105421 | 63 | 202 | 0.0 | 0.0 | 0.00 | 0.03 | 0.00 | 80 | 1009.5 |
| 20260904104915 | 63 | 202 | 0.0 | 0.0 | 0.00 | 0.03 | 0.00 | 80 | 1009.6 |
| 20260904104409 | 63 | 202 | 0.0 | 0.0 | 0.00 | 0.03 | 0.00 | 80 | 1009.6 |
| 20260904103903 | 63 | 202 | 0.0 | 0.0 | 0.00 | 0.03 | 0.00 | 80 | 1009.5 |
| 20260904103357 | 63 | 202 | 0.0 | 0.0 | 0.00 | 0.03 | 0.00 | 80 | 1009.5 |
| 20260904103110 | 63 | 202 | 0.0 | 0.0 | 0.00 | 0.03 | 0.00 | 80 | 1009.6 |
| 20260904102345 | 63 | 202 | 0.0 | 0.0 | 0.00 | 0.03 | 0.00 | 80 | 1009.3 |
| 20260904101839 | 63 | 202 | 0.0 | 0.0 | 0.00 | 0.03 | 0.00 | 80 | 1009.3 |
| 20260904101551 | 63 | 202 | 0.0 | 0.0 | 0.00 | 0.03 | 0.00 | 80 | 1009.3 |
| 20260904100827 | 63 | 202 | 0.0 | 0.0 | 0.00 | 0.03 | 0.00 | 80 | 1009.2 |
| 20260904100321 | 63 | 202 | 0.0 | 0.0 | 0.00 | 0.03 | 0.00 | 80 | 1009.4 |
| 20260904095821 | 63 | 202 | 0.0 | 0.0 | 0.00 | 0.03 | 0.00 | 80 | 1009.4 |
| 20260904095321 | 63 | 202 | 0.0 | 0.0 | 0.00 | 0.03 | 0.00 | 80 | 1009.4 |
| 20260904094821 | 63 | 202 | 0.0 | 0.0 | 0.00 | 0.03 | 0.00 | 80 | 1009.2 |
| 20260904094319 | 63 | 202 | 0.0 | 0.0 | 0.00 | 0.03 | 0.00 | 80 | 1009.3 |
| 20260904093819 | 63 | 202 | 0.0 | 0.0 | 0.00 | 0.03 | 0.00 | 80 | 1009.2 |
| 20260904093318 | 63 | 202 | 0.0 | 0.0 | 0.00 | 0.03 | 0.00 | 80 | 1009.2 |
| 20260904093258 | 63 | 202 | 0.0 | 0.0 | 0.00 | 0.03 | 0.00 | 80 | 1009.4 |
| 20260904092313 | 63 | 202 | 0.0 | 0.0 | 0.00 | 0.03 | 0.00 | 80 | 1009.3 |
| 20260904091813 | 63 | 202 | 0.0 | 2.0 | 0.00 | 0.03 | 0.00 | 80 | 1009.4 |
| 20260904091310 | 63 | 202 | 0.0 | 2.0 | 0.00 | 0.03 | 0.00 | 80 | 1009.4 |
| 20260904090811 | 63 | 202 | 0.0 | 1.0 | 0.00 | 0.03 | 0.00 | 80 | 1009.2 |
| 20260904090311 | 63 | 202 | 0.0 | 0.0 | 0.00 | 0.03 | 0.00 | 80 | 1009.2 |
| 20260904085809 | 63 | 202 | 0.0 | 0.0 | 0.00 | 0.05 | 0.00 | 80 | 1009.3 |
| 20260904085309 | 63 | 203 | 0.0 | 0.0 | 0.00 | 0.06 | 0.00 | 80 | 1009.2 |
| 20260904084805 | 63 | 203 | 0.0 | 0.0 | 0.00 | 0.08 | 0.00 | 80 | 1009.2 |
| 20260904084304 | 63 | 203 | 0.0 | 0.0 | 0.00 | 0.09 | 0.00 | 80 | 1009.4 |
| 20260904083804 | 63 | 203 | 0.0 | 0.0 | 0.00 | 0.09 | 0.00 | 80 | 1009.2 |
| 20260904083303 | 63 | 203 | 0.0 | 1.0 | 0.00 | 0.09 | 0.00 | 80 | 1009.2 |
| 20260904082804 | 63 | 204 | 0.0 | 1.0 | 0.00 | 0.09 | 0.00 | 80 | 1009.2 |
| 20260904082305 | 63 | 204 | 0.0 | 1.0 | 0.00 | 0.09 | 0.00 | 81 | 1009.2 |
| 20260904081805 | 63 | 204 | 0.0 | 0.0 | 0.00 | 0.09 | 0.00 | 81 | 1009.4 |
| 20260904081304 | 63 | 204 | 0.0 | 0.0 | 0.00 | 0.09 | 0.00 | 81 | 1009.5 |
| 20260904080805 | 63 | 203 | 0.0 | 1.0 | 0.00 | 0.09 | 0.00 | 81 | 1009.4 |
| 20260904080301 | 63 | 204 | 0.0 | 1.0 | 0.00 | 0.09 | 0.00 | 81 | 1009.3 |
| 20260904075759 | 63 | 204 | 0.0 | 1.0 | 0.00 | 0.09 | 0.00 | 81 | 1009.4 |
| 20260904075300 | 63 | 204 | 0.0 | 0.0 | 0.00 | 0.09 | 0.00 | 81 | 1009.6 |
| 20260904074759 | 63 | 204 | 0.0 | 1.0 | 0.00 | 0.09 | 0.00 | 81 | 1009.4 |
| 20260904074300 | 63 | 204 | 0.0 | 1.0 | 0.00 | 0.09 | 0.00 | 80 | 1009.4 |
| 20260904073759 | 63 | 204 | 0.0 | 0.0 | 0.00 | 0.09 | 0.00 | 80 | 1009.5 |
| 20260904073301 | 63 | 204 | 0.0 | 0.0 | 0.00 | 0.09 | 0.00 | 80 | 1009.7 |
| 20260904072759 | 63 | 204 | 0.0 | 0.0 | 0.00 | 0.09 | 0.00 | 80 | 1009.7 |
| 20260904072305 | 63 | 204 | 0.0 | 0.0 | 0.00 | 0.09 | 0.00 | 80 | 1009.7 |
| 20260904071754 | 63 | 204 | 0.0 | 0.0 | 0.00 | 0.09 | 0.00 | 80 | 1009.7 |
| 20260904071253 | 63 | 204 | 0.0 | 0.0 | 0.00 | 0.09 | 0.00 | 80 | 1009.7 |
| 20260904070749 | 63 | 204 | 0.0 | 0.0 | 0.00 | 0.09 | 0.00 | 80 | 1009.7 |
| 20260904070249 | 63 | 204 | 0.0 | 2.0 | 0.00 | 0.09 | 0.00 | 80 | 1009.7 |
| 20260904070005 | 63 | 204 | 0.0 | 2.0 | 0.00 | 0.09 | 0.00 | 80 | 1009.7 |
| 20260904065511 | 63 | 204 | 0.0 | 0.0 | 0.00 | 0.10 | 0.00 | 80 | 1009.7 |
| 20260904064745 | 63 | 204 | 0.0 | 0.0 | 0.00 | 0.10 | 0.00 | 80 | 1009.7 |
| 20260904064245 | 63 | 204 | 0.0 | 0.0 | 0.00 | 0.10 | 0.00 | 80 | 1009.8 |
| 20260904064008 | 63 | 204 | 0.0 | 0.0 | 0.00 | 0.10 | 0.00 | 80 | 1009.9 |
| 20260904063241 | 62 | 204 | 0.0 | 0.0 | 0.00 | 0.10 | 0.00 | 80 | 1009.9 |
| 20260904063006 | 62 | 204 | 0.0 | 0.0 | 0.00 | 0.10 | 0.00 | 80 | 1009.9 |
| 20260904062239 | 62 | 204 | 0.0 | 0.0 | 0.00 | 0.10 | 0.00 | 80 | 1010.1 |
| 20260904061737 | 62 | 204 | 0.0 | 0.0 | 0.00 | 0.10 | 0.00 | 80 | 1010.2 |
| 20260904061238 | 62 | 204 | 0.0 | 2.0 | 0.00 | 0.10 | 0.00 | 80 | 1010.2 |
| 20260904060738 | 62 | 204 | 0.0 | 2.0 | 0.00 | 0.10 | 0.00 | 80 | 1010.2 |
| 20260904060235 | 62 | 204 | 0.0 | 1.0 | 0.00 | 0.10 | 0.00 | 80 | 1010.2 |
| 20260904055736 | 62 | 204 | 0.0 | 0.0 | 0.00 | 0.10 | 0.00 | 80 | 1010.3 |
| 20260904055239 | 62 | 203 | 0.0 | 0.0 | 0.00 | 0.10 | 0.00 | 80 | 1010.3 |
| 20260904054959 | 62 | 204 | 0.0 | 1.0 | 0.00 | 0.10 | 0.00 | 80 | 1010.4 |
| 20260904054236 | 62 | 204 | 0.0 | 1.0 | 0.00 | 0.10 | 0.00 | 80 | 1010.5 |
| 20260904053952 | 62 | 204 | 0.0 | 0.0 | 0.00 | 0.10 | 0.00 | 80 | 1010.5 |
| 20260904053224 | 62 | 204 | 0.0 | 0.0 | 0.00 | 0.10 | 0.00 | 80 | 1010.8 |
| 20260904052718 | 62 | 204 | 0.0 | 0.0 | 0.00 | 0.10 | 0.00 | 80 | 1010.7 |
| 20260904052212 | 62 | 204 | 0.0 | 0.0 | 0.00 | 0.10 | 0.00 | 80 | 1010.9 |
| 20260904051706 | 62 | 204 | 0.0 | 0.0 | 0.00 | 0.10 | 0.00 | 80 | 1010.9 |
| 20260904051200 | 62 | 204 | 0.0 | 0.0 | 0.00 | 0.10 | 0.00 | 80 | 1011.0 |
| 20260904050655 | 62 | 204 | 0.0 | 0.0 | 0.00 | 0.10 | 0.00 | 80 | 1011.0 |
| 20260904050148 | 62 | 204 | 0.0 | 0.0 | 0.00 | 0.10 | 0.00 | 80 | 1010.9 |
| 20260904045642 | 62 | 204 | 0.0 | 0.0 | 0.00 | 0.10 | 0.00 | 80 | 1010.8 |
| 20260904045136 | 62 | 204 | 0.0 | 0.0 | 0.00 | 0.10 | 0.00 | 80 | 1010.8 |
| 20260904044630 | 63 | 204 | 0.0 | 0.0 | 0.00 | 0.10 | 0.00 | 80 | 1010.9 |
| 20260904044344 | 63 | 204 | 0.0 | 0.0 | 0.00 | 0.10 | 0.00 | 80 | 1010.8 |
| 20260904043617 | 63 | 204 | 0.0 | 0.0 | 0.00 | 0.10 | 0.00 | 80 | 1010.8 |
| 20260904043112 | 63 | 204 | 0.0 | 0.0 | 0.00 | 0.10 | 0.00 | 80 | 1010.9 |
| 20260904042828 | 63 | 204 | 0.0 | 0.0 | 0.00 | 0.10 | 0.00 | 80 | 1011.0 |
| 20260904042323 | 63 | 204 | 0.0 | 1.0 | 0.00 | 0.10 | 0.00 | 80 | 1011.0 |
| 20260904041553 | 63 | 204 | 0.0 | 1.0 | 0.00 | 0.10 | 0.00 | 80 | 1010.9 |
| 20260904041312 | 63 | 204 | 0.0 | 1.0 | 0.00 | 0.10 | 0.00 | 80 | 1011.1 |
| 20260904040542 | 63 | 204 | 0.0 | 1.0 | 0.00 | 0.10 | 0.00 | 80 | 1011.2 |
| 20260904040036 | 62 | 204 | 0.0 | 1.0 | 0.00 | 0.10 | 0.00 | 80 | 1011.2 |
| 20260904035528 | 63 | 204 | 0.0 | 1.0 | 0.00 | 0.10 | 0.10 | 80 | 1011.3 |
| 20260904035504 | 63 | 204 | 0.0 | 0.0 | 0.00 | 0.10 | 0.10 | 79 | 1011.2 |
| 20260904035013 | 63 | 204 | 0.0 | 0.0 | 0.00 | 0.10 | 0.10 | 79 | 1011.4 |
| 20260904034010 | 63 | 204 | 0.0 | 0.0 | 0.00 | 0.10 | 0.10 | 79 | 1011.4 |
| 20260904033504 | 63 | 204 | 0.0 | 1.0 | 0.00 | 0.10 | 0.10 | 79 | 1011.3 |
| 20260904032958 | 63 | 204 | 0.0 | 1.0 | 0.00 | 0.10 | 0.10 | 79 | 1011.3 |
| 20260904032452 | 63 | 204 | 0.0 | 1.0 | 0.00 | 0.10 | 0.10 | 79 | 1011.2 |